FW3021 Weather Reports


Display with metric or nautical units.
time (UTC)temp
F
wind
direction
speed
MPH
gust
MPH
rain 1hr
in
rain 24hr
in
rain mn
in
humidity
%
barometer
mb
20260504013017 45 0.0 0.0 0.00 0.00 0.00 53 999.0
20260504012017 46 0.0 0.0 0.00 0.00 0.00 50 999.1
20260504011016 47 0.0 0.0 0.00 0.00 0.00 48 999.2
20260504010016 48 0.0 2.0 0.00 0.00 0.00 46 999.3
20260504005016 49 0.0 1.0 0.00 0.00 0.00 43 999.2
20260504004016 56 225 2.0 6.0 0.00 0.00 0.00 32 999.5
20260504003016 64 225 1.0 11.0 0.00 0.00 0.00 20 999.6
20260504002017 64 0.0 1.0 0.00 0.00 0.00 19 999.6
20260504001056 65 338 2.0 6.0 0.00 0.00 0.00 19 999.9
20260504000016 65 293 2.0 6.0 0.00 0.00 0.00 18 999.9
20260503235016 65 293 2.0 8.0 0.00 0.00 0.00 17 999.9
20260503234017 65 338 4.0 14.0 0.00 0.00 0.00 17 999.9
20260503233016 65 270 4.0 10.0 0.00 0.00 0.00 17 1000.0
20260503232016 65 270 6.0 18.0 0.00 0.00 0.00 17 1000.1
20260503231036 65 225 4.0 10.0 0.00 0.00 0.00 17 1000.2
20260503230056 65 0 5.0 18.0 0.00 0.00 0.00 17 1000.4
20260503225036 66 225 4.0 11.0 0.00 0.00 0.00 16 1000.5
20260503224036 67 315 5.0 14.0 0.00 0.00 0.00 15 1000.5
20260503223037 67 338 8.0 21.0 0.00 0.00 0.00 15 1000.5
20260503222016 67 225 5.0 14.0 0.00 0.00 0.00 15 1000.6
20260503221016 67 248 4.0 14.0 0.00 0.00 0.00 15 1000.6
20260503220036 68 338 3.0 11.0 0.00 0.00 0.00 15 1000.5
20260503215016 68 270 4.0 12.0 0.00 0.00 0.00 14 1000.6
20260503214016 68 338 6.0 14.0 0.00 0.00 0.00 13 1000.6
20260503213016 67 338 3.0 8.0 0.00 0.00 0.00 12 1000.7
20260503212016 67 248 4.0 15.0 0.00 0.00 0.00 11 1000.7
20260503211036 67 315 7.0 18.0 0.00 0.00 0.00 8 1000.8
20260503210036 67 338 6.0 17.0 0.00 0.00 0.00 8 1001.0
20260503205016 67 225 5.0 13.0 0.00 0.00 0.00 8 1001.1
20260503204016 68 315 3.0 8.0 0.00 0.00 0.00 7 1001.0
20260503203016 68 203 3.0 9.0 0.00 0.00 0.00 8 1001.4
20260503202016 67 293 5.0 17.0 0.00 0.00 0.00 9 1001.3
20260503201016 67 338 6.0 14.0 0.00 0.00 0.00 9 1001.5
20260503200016 67 338 10.0 23.0 0.00 0.00 0.00 8 1001.5
20260503195016 66 45 6.0 17.0 0.00 0.00 0.00 7 1001.5
20260503194016 66 338 8.0 17.0 0.00 0.00 0.00 6 1001.7
20260503193016 66 338 5.0 13.0 0.00 0.00 0.00 10 1001.8
20260503192016 66 338 8.0 21.0 0.00 0.00 0.00 10 1001.8
20260503191016 67 23 7.0 16.0 0.00 0.00 0.00 7 1002.0
20260503190016 68 315 5.0 15.0 0.00 0.00 0.00 11 1002.0
20260503185016 68 203 4.0 21.0 0.00 0.00 0.00 11 1002.0
20260503184016 67 225 5.0 12.0 0.00 0.00 0.00 14 1002.1
20260503183016 67 338 7.0 19.0 0.00 0.00 0.00 11 1002.1
20260503182016 66 68 3.0 9.0 0.00 0.00 0.00 14 1002.2
20260503181016 66 90 3.0 12.0 0.00 0.00 0.00 13 1002.3
20260503180016 65 23 7.0 17.0 0.00 0.00 0.00 13 1002.5
20260503175036 66 45 6.0 16.0 0.00 0.00 0.00 14 1002.6
20260503174015 66 315 7.0 15.0 0.00 0.00 0.00 12 1002.6
20260503173016 66 23 8.0 20.0 0.00 0.00 0.00 14 1002.5
20260503172016 66 338 3.0 10.0 0.00 0.00 0.00 15 1002.6
20260503171016 66 225 5.0 16.0 0.00 0.00 0.00 15 1002.7
20260503131017 42 225 5.0 9.0 0.00 0.00 0.00 48 1003.4
20260503081016 39 0.0 0.0 0.00 0.00 0.00 59 1005.1
20260503072036 39 0.0 1.0 0.00 0.00 0.00 61 1005.7
20260503071017 40 158 1.0 4.0 0.00 0.00 0.00 60 1005.8
20260503055016 40 0.0 0.0 0.00 0.00 0.00 63 1006.3
20260503054016 40 0.0 0.0 0.00 0.00 0.00 64 1006.4
20260503053016 40 0.0 0.0 0.00 0.00 0.00 64 1006.4
20260503052016 40 0.0 0.0 0.00 0.00 0.00 64 1006.4
20260503051016 41 0.0 0.0 0.00 0.00 0.00 62 1006.5
20260503050016 41 0.0 2.0 0.00 0.00 0.00 59 1006.6
20260503045016 41 113 1.0 2.0 0.00 0.00 0.00 59 1006.7
20260503044016 41 113 1.0 2.0 0.00 0.00 0.00 58 1006.9
20260503043016 41 113 1.0 2.0 0.00 0.00 0.00 58 1006.9
20260503042016 40 0.0 0.0 0.00 0.00 0.00 60 1007.0
20260503041016 40 0.0 0.0 0.00 0.00 0.00 60 1007.1
20260503040016 41 0.0 0.0 0.00 0.00 0.00 58 1007.0
20260503035016 41 0.0 1.0 0.00 0.00 0.00 57 1007.0
20260503034036 41 0.0 0.0 0.00 0.00 0.00 56 1007.2
20260503033016 41 113 1.0 2.0 0.00 0.00 0.00 56 1007.4
20260503032016 41 0.0 0.0 0.00 0.00 0.00 54 1007.7
20260503031016 41 0.0 0.0 0.00 0.00 0.00 52 1007.6
20260503030016 41 0.0 2.0 0.00 0.00 0.00 54 1007.8
20260503025036 42 0.0 0.0 0.00 0.00 0.00 55 1007.8
20260503024036 42 0.0 0.0 0.00 0.00 0.00 53 1008.0
20260503023016 42 0.0 0.0 0.00 0.00 0.00 47 1008.0
20260503022016 42 0.0 2.0 0.00 0.00 0.00 47 1008.2
20260503021016 42 113 1.0 3.0 0.00 0.00 0.00 47 1008.0
20260503020056 42 0.0 2.0 0.00 0.00 0.00 48 1008.0
20260503015016 42 0.0 3.0 0.00 0.00 0.00 49 1008.1
20260503014016 42 0.0 2.0 0.00 0.00 0.00 51 1008.3